Starlink 3723

operational
NORAD ID: 52138 Int'l Des: 2022-029 Owner: SPXS Country: US Constellation: starlink
LEOCIRCULAR

Starlink 3723について

説明を読み込み中...

リアルタイム位置

3D地球を読み込み中...

次回通過

高度履歴

Altitude vs Time

uPlot chart will show altitude changes over time

軌道要素

1 52138U 22029BC 26062.36759764 -.00000482 00000-0 -12223-4 0 9997
2 52138 53.2170 97.4980 0001290 97.1249 262.9890 15.08840727219987
Epoch: Mar 3, 2026 • Age: 30 hours

現在のステータス

高度 539.9 km
速度 7.59 km/s
衛星直下点 9.09°N, 144.63°W
打ち上げ日 Mar 19, 2022
運用期間 3.9 years
タイプ internet

技術仕様

分類 Payload
質量 297.00 kg
乾燥質量 275.00 kg
総質量 297.00 kg
長さ 0.20 m
直径 2.80 m
スパン 9.00 m
形状 Box + pan
製造者 SPXS
バスタイプ Starlink
フェーズステータス In Orbit
所有者/国 SPXS/US

大規模コンステレーション

Loading constellations...